Location: Delia
(51.6321°N, 112.3740°W)
Time: 14:37:13
(UTC+00:00)

Envisat - Pass Details

Date: 04 December 2021
Orbit: 764 x 766 km, 98.2° (Epoch: 28 January)

Event Time Altitude Azimuth Distance (km) Brightness Sun altitude
Rises 12:10:51 0° 18° (NNE) 3,248 6.4 -27.9°
Reaches altitude 10° 12:13:16 10° 24° (NNE) 2,316 5.7 -27.5°
Maximum altitude 12:18:12 48° 99° (E) 995 3.9 -26.7°
Drops below altitude 10° 12:23:06 10° 174° (S) 2,299 5.6 -26.0°
Sets 12:25:28 0° 180° (S) 3,220 6.3 -25.6°
